Volk, WI

3:13 AM CDT on April 26, 2017 (GMT -0500)
Volk

Weather History for KVOK - November, 2012

Change the Weather History Date:

Thursday, November 8, 2012

  Actual Average Record
Temperature  
Mean Temperature 39 °F -  
Max Temperature 51 °F 44 °F 73 °F (2006)
Min Temperature 27 °F 31 °F 16 °F (2013)
Degree Days  
Heating Degree Days 26    
Moisture  
Dew Point 33 °F    
Average Humidity 80    
Maximum Humidity 96    
Minimum Humidity 54    
Precipitation  
Precipitation 0.00 in - - ()
Sea Level Pressure  
Sea Level Pressure 30.09 in    
Wind  
Wind Speed 7 mph (South)    
Max Wind Speed 13 mph    
Max Gust Speed 20 mph    
Visibility 10 miles    
Events      
Averages and records for this station are not official NWS values.
T = Trace of Precipitation, MM = Missing Value Source: NWS Daily Summary

Daily Weather History Graph

Daily Weather History Graph

Search for Another Location

Airport or City:

Trip Planner

Search our weather history database for the weather conditions in past years. The results will help you decide how hot, cold, wet, or windy it might be!

Date:

Astronomy

Nov. 08, 2012 Rise Set
Actual Time 6:47 AM CST 4:41 PM CST
Civil Twilight 6:16 AM CST 5:12 PM CST
Nautical Twilight 5:42 AM CST 5:46 PM CST
Astronomical Twilight 5:08 AM CST 6:20 PM CST
Moon 12:31 AM CST (11/8) 1:33 PM CST (11/8)
Length of Visible Light 10h 55m
Length of Day
9h 54m
Waning Crescent, 32% of the Moon is Illuminated
Nov 8
Waning Crescent
Nov 13
New
Nov 20
First Quarter
Nov 28
Full
Dec 6
Last Quarter

Hourly Weather History & Observations

Time (CST) Temp. Windchill Dew Point Humidity Pressure Visibility Wind Dir Wind Speed Gust Speed Precip Events Conditions
12:55 AM 36.7 °F 30.5 °F 33.3 °F 87% 30.15 in 10.0 mi South 8.1 mph - N/A   Overcast
1:55 AM 36.5 °F 31.8 °F 33.4 °F 89% 30.15 in 10.0 mi South 5.8 mph - N/A   Overcast
2:55 AM 36.7 °F 32.0 °F 33.3 °F 87% 30.15 in 10.0 mi South 5.8 mph - N/A   Overcast
3:55 AM 37.4 °F 32.8 °F 33.3 °F 85% 30.15 in 10.0 mi South 5.8 mph - N/A   Overcast
4:55 AM 34.0 °F 28.8 °F 31.8 °F 92% 30.14 in 10.0 mi SSE 5.8 mph - N/A   Partly Cloudy
5:55 AM 30.7 °F 24.9 °F 29.5 °F 95% 30.13 in 9.0 mi SE 5.8 mph - N/A   Clear
6:55 AM 32.0 °F 27.5 °F 30.2 °F 93% 30.13 in 10.0 mi SSE 4.6 mph - N/A   Mostly Cloudy
7:55 AM 33.8 °F 29.6 °F 32.0 °F 93% 30.14 in 10.0 mi SSE 4.6 mph - N/A   Mostly Cloudy
8:55 AM 39.2 °F 33.6 °F 33.8 °F 81% 30.14 in 10.0 mi South 8.1 mph 17.3 mph N/A   Scattered Clouds
9:55 AM 44.6 °F 39.2 °F 33.8 °F 66% 30.12 in 10.0 mi South 10.4 mph 19.6 mph N/A   Partly Cloudy
10:55 AM 46.4 °F 41.1 °F 35.6 °F 66% 30.10 in 10.0 mi SSW 11.5 mph 17.3 mph N/A   Mostly Cloudy
11:55 AM 50.0 °F - 35.6 °F 58% 30.07 in 10.0 mi South 11.5 mph 17.3 mph N/A   Scattered Clouds
12:55 PM 50.0 °F - 35.6 °F 58% 30.05 in 10.0 mi South 12.7 mph - N/A   Scattered Clouds
1:55 PM 51.8 °F - 35.6 °F 54% 30.02 in 10.0 mi South 11.5 mph - N/A   Scattered Clouds
2:55 PM 51.8 °F - 35.6 °F 54% 30.01 in 10.0 mi SSE 12.7 mph 17.3 mph N/A   Partly Cloudy
3:55 PM 50.0 °F - 35.6 °F 58% 30.00 in 10.0 mi South 10.4 mph - N/A   Partly Cloudy
4:55 PM 46.4 °F 45.2 °F 35.6 °F 66% 30.01 in 10.0 mi SSE 3.5 mph - N/A   Partly Cloudy
5:55 PM 41.0 °F - 33.8 °F 76% 30.03 in 10.0 mi Calm Calm - N/A   Clear
6:55 PM 35.1 °F - 31.8 °F 88% 30.05 in 10.0 mi Calm Calm - N/A   Clear
7:55 PM 32.0 °F - 30.2 °F 93% 30.06 in 10.0 mi Calm Calm - N/A   Clear
8:55 PM 30.6 °F - 29.3 °F 95% 30.06 in 9.0 mi Calm Calm - N/A   Clear
9:55 PM 30.2 °F 25.4 °F 28.4 °F 93% 30.07 in 10.0 mi SSE 4.6 mph - N/A   Clear
10:55 PM 27.7 °F 23.8 °F 26.8 °F 96% 30.07 in 7.0 mi SE 3.5 mph - N/A   Clear
11:55 PM 32.0 °F - 31.1 °F 96% 30.07 in 9.0 mi Calm Calm - N/A   Overcast